Location: Newark
(42.8481°N, 0.4872°E)
Time: 08:31:14
(UTC+00:00)

Vanguard 2 - Pass Details

Date: 31 October 2020
Orbit: 554 x 2937 km, 32.9° (Epoch: 26 November)

Event Time Altitude Azimuth Distance (km) Brightness Sun altitude
Rises 20:58:38 0° 260° (W) 5,446 12.4 -45.0°
Reaches altitude 10° 21:01:50 10° 256° (WSW) 4,714 11.9 -45.6°
Enters shadow 21:12:54 54° 215° (SW) 3,097 10.3 -47.3°
Maximum altitude 21:15:49 59° 182° (S) 3,080 - -47.8°
Drops below altitude 10° 21:33:10 10° 110° (ESE) 5,712 - -50.5°
Sets 21:37:31 0° 107° (ESE) 6,620 - -51.1°
